Mount Holly, NJ

8:54 AM EST on November 15, 2019 (GMT -0500)
South Jersey Regional

Weather History for KVAY - August, 2019

Change the Weather History Date:

Saturday, August 24, 2019

  Actual Average (KPNE) Record (KPNE)
Temperature  
Mean Temperature 68 °F -  
Max Temperature 79 °F 82 °F 96 °F (2012)
Min Temperature 57 °F 64 °F 55 °F (1997)
Cooling Degree Days 2    
Growing Degree Days 18 (Base 50)    
Moisture  
Dew Point 55 °F    
Average Humidity 68    
Maximum Humidity 93    
Minimum Humidity 40    
Precipitation  
Precipitation 0.00 in - - ()
Sea Level Pressure  
Sea Level Pressure 30.15 in    
Wind  
Wind Speed 3 mph (NNE)    
Max Wind Speed 8 mph    
Max Gust Speed -    
Visibility 10 miles    
Events      
Averages and records for this station are not official NWS values.
T = Trace of Precipitation, MM = Missing Value Source: NWS Daily Summary

Daily Weather History Graph

Daily Weather History Graph

Search for Another Location

Airport or City:

Astronomy

Aug. 24, 2019 Rise Set
Actual Time 6:19 AM EDT 7:43 PM EDT
Civil Twilight 5:51 AM EDT 8:11 PM EDT
Nautical Twilight 5:17 AM EDT 8:45 PM EDT
Astronomical Twilight 4:41 AM EDT 9:21 PM EDT
Moon 12:11 AM EDT (8/24) 2:56 PM EDT (8/24)
Length of Visible Light 14h 20m
Length of Day
13h 23m
Last Quarter, 39% of the Moon is Illuminated
Aug 24
Last Quarter
Aug 30
New
Sep 5
First Quarter
Sep 14
Full
Sep 21
Last Quarter

Hourly Weather History & Observations

Time (EDT) Temp. Dew Point Humidity Pressure Visibility Wind Dir Wind Speed Gust Speed Precip Events Conditions
12:54 AM 63.0 °F 57.9 °F 84% 30.07 in 10.0 mi NNW 4.6 mph - N/A   Clear
1:54 AM 62.1 °F 57.0 °F 84% 30.06 in 10.0 mi Calm Calm - N/A   Partly Cloudy
2:54 AM 61.0 °F 55.9 °F 83% 30.07 in 10.0 mi NNW 3.5 mph - N/A   Clear
3:54 AM 60.1 °F 55.0 °F 83% 30.09 in 10.0 mi Calm Calm - N/A   Clear
4:54 AM 57.9 °F 54.0 °F 87% 30.09 in 10.0 mi NNW 3.5 mph - N/A   Clear
5:54 AM 60.1 °F 55.0 °F 83% 30.11 in 10.0 mi Calm Calm - N/A   Scattered Clouds
6:54 AM 59.0 °F 55.0 °F 87% 30.14 in 10.0 mi Calm Calm - N/A   Clear
7:54 AM 63.0 °F 57.0 °F 81% 30.15 in 10.0 mi NNE 4.6 mph - N/A   Mostly Cloudy
8:54 AM 66.0 °F 57.0 °F 73% 30.18 in 10.0 mi NNE 6.9 mph - N/A   Overcast
9:54 AM 68.0 °F 55.9 °F 65% 30.18 in 10.0 mi NNE 8.1 mph - N/A   Overcast
10:54 AM 71.1 °F 57.0 °F 61% 30.18 in 10.0 mi NE 5.8 mph - N/A   Mostly Cloudy
11:54 AM 73.9 °F 57.0 °F 55% 30.18 in 10.0 mi Variable 4.6 mph - N/A   Scattered Clouds
12:54 PM 75.0 °F 52.0 °F 44% 30.17 in 10.0 mi Variable 4.6 mph - N/A   Partly Cloudy
1:54 PM 77.0 °F 52.0 °F 42% 30.17 in 10.0 mi NNW 4.6 mph - N/A   Clear
2:54 PM 78.1 °F 52.0 °F 40% 30.15 in 10.0 mi NNE 6.9 mph - N/A   Mostly Cloudy
3:54 PM 75.9 °F 51.1 °F 42% 30.15 in 10.0 mi North 6.9 mph - N/A   Scattered Clouds
4:54 PM 75.9 °F 52.0 °F 43% 30.16 in 10.0 mi NNE 8.1 mph - N/A   Mostly Cloudy
5:54 PM 75.9 °F 54.0 °F 46% 30.16 in 10.0 mi NE 5.8 mph - N/A   Scattered Clouds
6:54 PM 73.0 °F 51.1 °F 46% 30.16 in 10.0 mi NNE 5.8 mph - N/A   Partly Cloudy
7:54 PM 68.0 °F 53.1 °F 59% 30.18 in 10.0 mi Calm Calm - N/A   Clear
8:54 PM 63.0 °F 54.0 °F 72% 30.20 in 10.0 mi ESE 3.5 mph - N/A   Clear
9:54 PM 59.0 °F 55.0 °F 87% 30.22 in 10.0 mi Calm Calm - N/A   Clear
10:54 PM 59.0 °F 55.9 °F 90% 30.22 in 10.0 mi Calm Calm - N/A   Clear
11:54 PM 57.0 °F 55.0 °F 93% 30.23 in 10.0 mi Calm Calm - N/A   Clear